Location: Vihti�l�
(61.3833°N, 23.0667°E)
Time: 03:32:12
(UTC+00:00)

Cosmos 405 Rocket - Pass Details

Date: 29 November 2020
Orbit: 489 x 553 km, 81.3° (Epoch: 19 January)

Event Time Altitude Azimuth Distance (km) Brightness Sun altitude
Rises 05:43:15 0° 226° (SW) 2,580 6.1 -9.0°
Reaches altitude 10° 05:45:32 10° 238° (WSW) 1,708 5.1 -8.8°
Maximum altitude 05:48:52 30° 301° (WNW) 932 3.4 -8.5°
Drops below altitude 10° 05:52:18 10° 4° (N) 1,748 5.1 -8.1°
Sets 05:54:39 0° 16° (NNE) 2,651 6.1 -7.9°
